EW3221 Weather Reports


Display with metric or nautical units.
time (UTC)temp
F
wind
direction
speed
MPH
gust
MPH
rain 1hr
in
rain 24hr
in
rain mn
in
humidity
%
barometer
mb
20260504081535 47 153 0.0 1.0 0.00 0.00 0.00 83 1015.6
20260504050009 41 264 0.0 0.0 0.00 0.00 0.00 85 1015.8
20260504044513 40 264 0.0 0.0 0.00 0.00 0.00 84 1015.7
20260504043011 40 264 0.0 0.0 0.00 0.00 0.00 83 1015.7
20260504041511 40 264 0.0 0.0 0.00 0.00 0.00 83 1015.9
20260504040100 40 264 0.0 0.0 0.00 0.00 0.00 81 1015.8
20260504034623 41 264 0.0 0.0 0.00 0.00 0.00 80 1015.7
20260504033059 41 264 0.0 0.0 0.00 0.00 0.00 80 1015.5
20260504031559 41 264 0.0 0.0 0.00 0.00 0.00 80 1015.4
20260504030058 41 264 0.0 0.0 0.00 0.00 0.00 80 1015.3
20260504024557 41 264 0.0 0.0 0.00 0.00 0.00 78 1015.3
20260504023056 42 264 0.0 0.0 0.00 0.00 0.00 76 1015.2
20260504021556 43 264 0.0 0.0 0.00 0.00 0.00 75 1015.2
20260504020119 43 264 0.0 0.0 0.00 0.00 0.00 74 1015.1
20260504014559 44 264 0.0 0.0 0.00 0.00 0.00 71 1015.0
20260504013113 45 264 0.0 0.0 0.00 0.00 0.00 69 1015.0
20260504011553 46 264 0.0 0.0 0.00 0.00 0.00 67 1014.8
20260504010055 47 264 0.0 0.0 0.00 0.00 0.00 65 1014.6
20260504004553 48 264 0.0 0.0 0.00 0.00 0.00 60 1014.7
20260504003053 50 264 0.0 0.0 0.00 0.00 0.00 57 1014.5
20260504001553 51 264 0.0 0.0 0.00 0.00 0.00 55 1014.4
20260504000052 52 254 0.0 0.0 0.00 0.00 0.00 51 1014.3
20260503234551 55 254 0.0 0.0 0.00 0.00 0.00 45 1014.1
20260503233051 56 254 0.0 1.0 0.00 0.00 0.00 42 1013.9
20260503231550 58 285 0.0 2.0 0.00 0.00 0.00 39 1013.9
20260503230049 59 5 1.0 9.0 0.00 0.00 0.00 36 1013.8
20260503224558 59 302 1.0 9.0 0.00 0.00 0.00 38 1013.9
20260503223049 60 262 0.0 6.0 0.00 0.00 0.00 36 1013.9
20260503221558 60 309 0.0 9.0 0.00 0.00 0.00 40 1013.9
20260503220048 61 223 0.0 5.0 0.00 0.00 0.00 36 1014.1
20260503214548 61 304 5.0 13.0 0.00 0.00 0.00 34 1014.0
20260503213047 61 298 0.0 8.0 0.00 0.00 0.00 33 1013.9
20260503211549 61 184 1.0 11.0 0.00 0.00 0.00 35 1014.0
20260503210045 62 253 0.0 5.0 0.00 0.00 0.00 36 1014.0
20260503204556 62 263 0.0 11.0 0.00 0.00 0.00 35 1014.0
20260503203046 61 280 0.0 9.0 0.00 0.00 0.00 36 1014.3
20260503201543 63 302 1.0 9.0 0.00 0.00 0.00 35 1014.4
20260503200042 63 213 3.0 14.0 0.00 0.00 0.00 37 1014.6
20260503194545 62 284 5.0 14.0 0.00 0.00 0.00 36 1014.9
20260503193046 62 238 1.0 10.0 0.00 0.00 0.00 34 1014.9
20260503191603 61 341 8.0 16.0 0.00 0.00 0.00 38 1015.2
20260503190036 61 280 0.0 11.0 0.00 0.00 0.00 38 1015.4
20260503184537 61 257 4.0 12.0 0.00 0.00 0.00 39 1015.5
20260503183035 60 273 2.0 12.0 0.00 0.00 0.00 36 1015.6
20260503181545 60 321 0.0 14.0 0.00 0.00 0.00 41 1015.6
20260503180036 60 292 4.0 15.0 0.00 0.00 0.00 41 1015.7
20260503174543 59 295 2.0 17.0 0.00 0.00 0.00 41 1015.7
20260503173030 59 329 6.0 12.0 0.00 0.00 0.00 41 1015.9
20260503171530 57 318 7.0 16.0 0.00 0.00 0.00 42 1016.0